Time,TemperatureF,DewpointF,PressureIn,WindDirection,WindDirectionDegrees,WindSpeedMPH,WindSpeedGustMPH,Humidity,HourlyPrecipIn,Conditions,Clouds,dailyrainin,SoftwareType,DateUTC
2013-06-30 00:02:00,73.0,69.0,29.82,WNW,298,0.0,0.0,88,0.00,,,0.81,,2013-06-30 04:02:00,
2013-06-30 00:12:00,73.0,69.0,29.83,WNW,298,0.0,0.0,88,0.00,,,0.81,,2013-06-30 04:12:00,
2013-06-30 00:22:00,72.0,69.0,29.82,WNW,298,0.0,0.0,89,0.00,,,0.81,,2013-06-30 04:22:00,
2013-06-30 00:33:00,72.0,69.0,29.83,WNW,298,0.0,0.0,89,0.00,,,0.81,,2013-06-30 04:33:00,
2013-06-30 00:43:00,72.0,69.0,29.83,WNW,298,0.0,0.0,90,0.00,,,0.81,,2013-06-30 04:43:00,
2013-06-30 00:53:00,72.0,69.0,29.83,WNW,298,0.0,0.0,90,0.00,,,0.81,,2013-06-30 04:53:00,
2013-06-30 01:02:00,72.0,69.0,29.83,WNW,298,0.0,0.0,90,0.00,,,0.81,,2013-06-30 05:02:00,
2013-06-30 01:12:00,72.0,69.0,29.83,WNW,298,0.0,0.0,90,0.00,,,0.81,,2013-06-30 05:12:00,
2013-06-30 01:22:00,71.0,68.0,29.83,WNW,298,0.0,0.0,91,0.00,,,0.81,,2013-06-30 05:22:00,
2013-06-30 01:34:00,71.0,68.0,29.83,WNW,298,0.0,0.0,91,0.00,,,0.81,,2013-06-30 05:34:00,
2013-06-30 01:43:00,71.0,68.0,29.83,WNW,298,0.0,0.0,91,0.00,,,0.81,,2013-06-30 05:43:00,
2013-06-30 01:53:00,71.0,68.0,29.83,WNW,298,0.0,0.0,91,0.00,,,0.81,,2013-06-30 05:53:00,
2013-06-30 02:02:00,71.0,68.0,29.83,WNW,298,0.0,0.0,91,0.00,,,0.81,,2013-06-30 06:02:00,
2013-06-30 02:12:00,71.0,68.0,29.82,WNW,298,0.0,0.0,91,0.00,,,0.81,,2013-06-30 06:12:00,
2013-06-30 02:23:00,71.0,68.0,29.83,WNW,298,0.0,0.0,91,0.00,,,0.81,,2013-06-30 06:23:00,
2013-06-30 02:34:00,71.0,68.0,29.83,WNW,298,0.0,0.0,91,0.00,,,0.81,,2013-06-30 06:34:00,
2013-06-30 02:43:00,71.0,68.0,29.82,WNW,298,0.0,0.0,91,0.00,,,0.81,,2013-06-30 06:43:00,
2013-06-30 02:53:00,71.0,68.0,29.82,WNW,298,0.0,0.0,91,0.00,,,0.81,,2013-06-30 06:53:00,
2013-06-30 03:02:00,71.0,69.0,29.83,WNW,298,0.0,0.0,92,0.00,,,0.81,,2013-06-30 07:02:00,
2013-06-30 03:12:00,71.0,69.0,29.82,WNW,298,0.0,0.0,92,0.00,,,0.81,,2013-06-30 07:12:00,
2013-06-30 03:22:00,71.0,69.0,29.82,WNW,298,0.0,0.0,92,0.00,,,0.81,,2013-06-30 07:22:00,
2013-06-30 03:33:00,71.0,69.0,29.82,WNW,298,0.0,0.0,92,0.00,,,0.81,,2013-06-30 07:33:00,
2013-06-30 03:44:00,71.0,69.0,29.82,WNW,298,0.0,0.0,92,-99.99,,,-99.99,,2013-06-30 07:44:00,
2013-06-30 03:53:00,71.0,69.0,29.82,WNW,298,0.0,0.0,92,-99.99,,,-99.99,,2013-06-30 07:53:00,
2013-06-30 04:02:00,70.0,68.0,29.82,WNW,298,0.0,0.0,92,-99.99,,,-99.99,,2013-06-30 08:02:00,
2013-06-30 04:12:00,70.0,68.0,29.81,WNW,298,0.0,0.0,92,-99.99,,,-99.99,,2013-06-30 08:12:00,
2013-06-30 04:22:00,70.0,68.0,29.81,WNW,298,0.0,0.0,93,-99.99,,,-99.99,,2013-06-30 08:22:00,
2013-06-30 04:33:00,70.0,68.0,29.81,WNW,298,0.0,0.0,93,-99.99,,,-99.99,,2013-06-30 08:33:00,
2013-06-30 04:42:00,70.0,68.0,29.81,WNW,298,0.0,0.0,93,0.00,,,-99.99,,2013-06-30 08:42:00,
2013-06-30 04:53:00,70.0,68.0,29.81,WNW,298,0.0,0.0,93,0.00,,,-99.99,,2013-06-30 08:53:00,
2013-06-30 05:01:00,70.0,68.0,29.82,WNW,298,0.0,0.0,93,0.00,,,-99.99,,2013-06-30 09:01:00,
2013-06-30 05:12:00,70.0,68.0,29.82,WNW,298,0.0,0.0,93,0.00,,,-99.99,,2013-06-30 09:12:00,
2013-06-30 05:23:00,70.0,68.0,29.82,WNW,298,0.0,0.0,93,0.00,,,-99.99,,2013-06-30 09:23:00,
2013-06-30 05:34:00,70.0,68.0,29.83,WNW,298,0.0,0.0,93,0.00,,,-99.99,,2013-06-30 09:34:00,
2013-06-30 05:43:00,70.0,68.0,29.83,WNW,298,0.0,0.0,93,0.00,,,-99.99,,2013-06-30 09:43:00,
2013-06-30 05:53:00,69.0,67.0,29.83,WNW,298,0.0,0.0,93,0.00,,,-99.99,,2013-06-30 09:53:00,
2013-06-30 06:02:00,69.0,67.0,29.83,WNW,298,0.0,0.0,94,0.00,,,-99.99,,2013-06-30 10:02:00,
2013-06-30 06:11:00,69.0,67.0,29.83,WNW,298,0.0,0.0,94,0.00,,,-99.99,,2013-06-30 10:11:00,
2013-06-30 06:22:00,69.0,67.0,29.84,WNW,298,0.0,0.0,94,0.00,,,-99.99,,2013-06-30 10:22:00,
2013-06-30 06:33:00,70.0,68.0,29.84,WNW,298,0.0,0.0,94,0.00,,,-99.99,,2013-06-30 10:33:00,
2013-06-30 06:42:00,70.0,68.0,29.85,WNW,298,0.0,0.0,94,0.00,,,-99.99,,2013-06-30 10:42:00,
2013-06-30 06:53:00,70.0,68.0,29.85,WNW,298,0.0,0.0,94,0.00,,,-99.99,,2013-06-30 10:53:00,
2013-06-30 07:02:00,70.0,68.0,29.85,WNW,298,0.0,0.0,94,0.00,,,-99.99,,2013-06-30 11:02:00,
2013-06-30 07:11:00,70.0,68.0,29.85,WNW,298,0.0,0.0,94,0.00,,,-99.99,,2013-06-30 11:11:00,
2013-06-30 07:22:00,70.0,68.0,29.86,WNW,298,0.0,0.0,94,0.00,,,-99.99,,2013-06-30 11:22:00,
2013-06-30 07:33:00,70.0,68.0,29.86,WNW,298,0.0,0.0,94,0.00,,,-99.99,,2013-06-30 11:33:00,
2013-06-30 07:43:00,70.0,68.0,29.86,WNW,298,0.0,0.0,94,0.00,,,-99.99,,2013-06-30 11:43:00,
2013-06-30 07:53:00,70.0,68.0,29.86,WNW,298,0.0,0.0,94,0.00,,,-99.99,,2013-06-30 11:53:00,
2013-06-30 08:02:00,70.0,68.0,29.87,WNW,298,0.0,0.0,94,0.00,,,-99.99,,2013-06-30 12:02:00,
2013-06-30 08:11:00,70.0,68.0,29.87,WNW,298,0.0,0.0,94,0.00,,,-99.99,,2013-06-30 12:11:00,
2013-06-30 08:24:00,70.0,68.0,29.87,WNW,298,0.0,0.0,94,0.00,,,-99.99,,2013-06-30 12:24:00,
2013-06-30 08:33:00,71.0,69.0,29.87,WNW,298,0.0,0.0,94,0.00,,,-99.99,,2013-06-30 12:33:00,
2013-06-30 08:43:00,71.0,69.0,29.88,WNW,298,0.0,0.0,94,0.00,,,-99.99,,2013-06-30 12:43:00,
2013-06-30 08:52:00,71.0,69.0,29.88,WNW,298,0.0,0.0,93,0.00,,,-99.99,,2013-06-30 12:52:00,
2013-06-30 09:02:00,72.0,70.0,29.88,WNW,298,0.0,0.0,93,0.00,,,-99.99,,2013-06-30 13:02:00,
2013-06-30 09:12:00,72.0,70.0,29.88,WNW,295,0.0,0.0,93,0.00,,,-99.99,,2013-06-30 13:12:00,
2013-06-30 09:22:00,72.0,70.0,29.88,WNW,295,0.0,0.0,93,0.00,,,-99.99,,2013-06-30 13:22:00,
2013-06-30 09:34:00,72.0,70.0,29.89,NW,311,0.0,0.0,92,0.00,,,0.00,,2013-06-30 13:34:00,
2013-06-30 09:43:00,72.0,70.0,29.89,NW,311,0.0,0.0,92,0.00,,,0.00,,2013-06-30 13:43:00,
2013-06-30 09:53:00,73.0,71.0,29.89,West,261,0.0,0.0,92,0.00,,,0.00,,2013-06-30 13:53:00,
2013-06-30 10:02:00,73.0,70.0,29.89,South,184,0.0,0.0,91,0.00,,,0.00,,2013-06-30 14:02:00,
2013-06-30 10:11:00,74.0,71.0,29.88,WSW,247,0.0,0.0,90,0.00,,,0.00,,2013-06-30 14:11:00,
2013-06-30 10:22:00,74.0,70.0,29.88,North,360,0.0,0.0,88,0.00,,,0.00,,2013-06-30 14:22:00,
2013-06-30 10:33:00,74.0,71.0,29.88,North,351,0.0,0.0,89,0.00,,,0.00,,2013-06-30 14:33:00,
2013-06-30 10:44:00,76.0,72.0,29.88,North,360,0.0,0.0,88,0.00,,,0.00,,2013-06-30 14:44:00,
2013-06-30 10:52:00,77.0,72.0,29.88,North,360,0.0,0.0,84,0.00,,,0.00,,2013-06-30 14:52:00,
2013-06-30 11:02:00,77.0,72.0,29.88,East,99,0.0,0.0,84,0.00,,,0.00,,2013-06-30 15:02:00,
2013-06-30 11:12:00,77.0,71.0,29.88,ENE,57,0.0,0.0,83,0.00,,,0.00,,2013-06-30 15:12:00,
2013-06-30 11:23:00,78.0,72.0,29.88,ENE,57,0.0,0.0,83,0.00,,,0.00,,2013-06-30 15:23:00,
2013-06-30 11:34:00,79.0,73.0,29.88,West,265,0.0,0.0,82,0.00,,,0.00,,2013-06-30 15:34:00,
2013-06-30 11:44:00,79.0,72.0,29.88,SW,230,0.0,0.0,80,0.00,,,0.00,,2013-06-30 15:44:00,
2013-06-30 11:53:00,80.0,72.0,29.88,WSW,241,0.0,0.0,77,0.00,,,0.00,,2013-06-30 15:53:00,
2013-06-30 12:01:00,80.0,72.0,29.88,WSW,241,0.0,0.0,78,0.00,,,0.00,,2013-06-30 16:01:00,
2013-06-30 12:11:00,81.0,73.0,29.89,SW,227,0.0,0.0,77,0.00,,,0.00,,2013-06-30 16:11:00,
2013-06-30 12:21:00,81.0,73.0,29.88,SSW,197,0.0,0.0,76,0.00,,,0.00,,2013-06-30 16:21:00,
2013-06-30 12:34:00,81.0,73.0,29.88,ENE,67,0.0,0.0,76,0.00,,,0.00,,2013-06-30 16:34:00,
2013-06-30 12:44:00,81.0,73.0,29.88,NE,44,0.0,0.0,76,0.00,,,0.00,,2013-06-30 16:44:00,
2013-06-30 12:53:00,81.0,73.0,29.87,ESE,103,0.0,0.0,77,0.00,,,0.00,,2013-06-30 16:53:00,
2013-06-30 13:02:00,82.0,73.0,29.87,WSW,244,0.0,0.0,75,0.00,,,0.00,,2013-06-30 17:02:00,
2013-06-30 13:11:00,83.0,74.0,29.87,South,175,0.0,0.0,75,0.00,,,0.00,,2013-06-30 17:11:00,
2013-06-30 13:23:00,83.0,72.0,29.87,NE,52,0.0,0.0,69,0.00,,,0.00,,2013-06-30 17:23:00,
2013-06-30 13:34:00,84.0,72.0,29.88,NNW,334,2.0,5.0,67,0.00,,,0.00,,2013-06-30 17:34:00,
2013-06-30 13:43:00,84.0,73.0,29.88,NNE,19,0.0,3.0,70,0.00,,,0.00,,2013-06-30 17:43:00,
2013-06-30 13:52:00,84.0,72.0,29.88,NNE,29,0.0,5.0,67,0.00,,,0.00,,2013-06-30 17:52:00,
2013-06-30 14:02:00,83.0,72.0,29.87,SW,222,0.0,5.0,70,0.00,,,0.00,,2013-06-30 18:02:00,
2013-06-30 14:12:00,82.0,73.0,29.87,SW,234,0.0,3.0,74,0.00,,,0.00,,2013-06-30 18:12:00,
2013-06-30 14:22:00,82.0,73.0,29.86,WSW,257,0.0,3.0,75,0.00,,,0.00,,2013-06-30 18:22:00,
2013-06-30 14:34:00,82.0,73.0,29.86,SW,234,0.0,4.0,75,0.00,,,0.00,,2013-06-30 18:34:00,
2013-06-30 14:43:00,82.0,73.0,29.86,NNE,13,1.0,3.0,74,0.00,,,0.00,,2013-06-30 18:43:00,
2013-06-30 14:53:00,83.0,73.0,29.85,ENE,75,0.0,3.0,73,0.00,,,0.00,,2013-06-30 18:53:00,
2013-06-30 15:01:00,83.0,72.0,29.85,WSW,241,1.0,4.0,70,0.00,,,0.00,,2013-06-30 19:01:00,
2013-06-30 15:11:00,83.0,72.0,29.85,SSW,200,0.0,4.0,70,0.00,,,0.00,,2013-06-30 19:11:00,
2013-06-30 15:22:00,83.0,72.0,29.85,WSW,242,0.0,3.0,70,0.00,,,0.00,,2013-06-30 19:22:00,
2013-06-30 15:33:00,83.0,71.0,29.85,WSW,241,1.0,3.0,68,0.00,,,0.00,,2013-06-30 19:33:00,
2013-06-30 15:43:00,83.0,71.0,29.85,SW,234,0.0,3.0,67,0.00,,,0.00,,2013-06-30 19:43:00,
2013-06-30 15:53:00,84.0,71.0,29.85,SW,214,0.0,4.0,66,0.00,,,0.00,,2013-06-30 19:53:00,
2013-06-30 16:02:00,85.0,71.0,29.85,West,262,0.0,3.0,63,0.00,,,0.00,,2013-06-30 20:02:00,
2013-06-30 16:11:00,85.0,72.0,29.85,WSW,242,0.0,3.0,66,0.00,,,0.00,,2013-06-30 20:11:00,
2013-06-30 16:22:00,85.0,73.0,29.85,SW,229,0.0,3.0,67,0.00,,,0.00,,2013-06-30 20:22:00,
2013-06-30 16:34:00,84.0,72.0,29.85,WSW,246,1.0,4.0,68,0.00,,,0.00,,2013-06-30 20:34:00,
2013-06-30 16:42:00,84.0,73.0,29.85,WSW,248,0.0,0.0,69,0.00,,,0.00,,2013-06-30 20:42:00,
2013-06-30 16:52:00,83.0,73.0,29.85,WSW,248,0.0,0.0,73,0.00,,,0.00,,2013-06-30 20:52:00,
2013-06-30 17:01:00,82.0,72.0,29.85,WSW,248,0.0,0.0,73,0.00,,,0.00,,2013-06-30 21:01:00,
2013-06-30 17:11:00,82.0,74.0,29.84,WSW,248,0.0,1.0,76,0.00,,,0.00,,2013-06-30 21:11:00,
2013-06-30 17:22:00,81.0,71.0,29.85,WNW,284,2.0,11.0,72,0.00,,,0.00,,2013-06-30 21:22:00,
2013-06-30 17:34:00,79.0,69.0,29.85,WSW,242,0.0,5.0,72,0.00,,,0.00,,2013-06-30 21:34:00,
2013-06-30 17:43:00,78.0,69.0,29.86,SSW,210,0.0,5.0,75,0.00,,,0.00,,2013-06-30 21:43:00,
2013-06-30 17:53:00,77.0,69.0,29.85,SW,227,0.0,4.0,76,0.00,,,0.00,,2013-06-30 21:53:00,
2013-06-30 18:01:00,77.0,70.0,29.85,SW,227,0.0,1.0,78,0.00,,,0.00,,2013-06-30 22:01:00,
2013-06-30 18:11:00,76.0,70.0,29.87,SW,233,0.0,1.0,81,0.00,,,0.00,,2013-06-30 22:11:00,
2013-06-30 18:22:00,76.0,70.0,29.88,SW,233,0.0,1.0,83,0.00,,,0.00,,2013-06-30 22:22:00,
2013-06-30 18:34:00,76.0,71.0,29.88,SW,232,0.0,0.0,84,0.00,,,0.00,,2013-06-30 22:34:00,
2013-06-30 18:43:00,75.0,70.0,29.88,SW,232,0.0,1.0,85,0.01,,,0.01,,2013-06-30 22:43:00,
2013-06-30 18:53:00,75.0,71.0,29.88,SW,232,0.0,2.0,87,0.01,,,0.01,,2013-06-30 22:53:00,
2013-06-30 19:02:00,75.0,71.0,29.89,South,182,0.0,3.0,88,0.01,,,0.01,,2013-06-30 23:02:00,
2013-06-30 19:11:00,74.0,71.0,29.89,SW,215,0.0,1.0,89,0.01,,,0.01,,2013-06-30 23:11:00,
2013-06-30 19:22:00,74.0,71.0,29.90,SW,215,0.0,2.0,89,0.01,,,0.01,,2013-06-30 23:22:00,
2013-06-30 19:33:00,74.0,70.0,29.91,SW,229,0.0,1.0,88,0.01,,,0.01,,2013-06-30 23:33:00,
2013-06-30 19:44:00,73.0,69.0,29.91,SW,230,0.0,1.0,88,0.00,,,0.01,,2013-06-30 23:44:00,
2013-06-30 19:53:00,73.0,69.0,29.92,West,269,0.0,1.0,88,0.01,,,0.02,,2013-06-30 23:53:00,
2013-06-30 20:01:00,72.0,69.0,29.91,West,269,0.0,0.0,89,0.02,,,0.03,,2013-07-01 00:01:00,
2013-06-30 20:11:00,72.0,69.0,29.92,West,268,0.0,0.0,90,0.03,,,0.04,,2013-07-01 00:11:00,
2013-06-30 20:22:00,71.0,68.0,29.92,WSW,254,2.0,5.0,90,0.03,,,0.04,,2013-07-01 00:22:00,
2013-06-30 20:33:00,71.0,68.0,29.93,WSW,248,0.0,4.0,90,0.05,,,0.06,,2013-07-01 00:33:00,
2013-06-30 20:42:00,70.0,67.0,29.93,WSW,249,0.0,1.0,91,0.08,,,0.09,,2013-07-01 00:42:00,
2013-06-30 20:52:00,70.0,67.0,29.93,SW,221,0.0,1.0,91,0.10,,,0.12,,2013-07-01 00:52:00,
2013-06-30 21:01:00,69.0,66.0,29.93,WSW,242,1.0,4.0,91,0.11,,,0.14,,2013-07-01 01:01:00,
2013-06-30 21:11:00,69.0,66.0,29.93,WSW,242,1.0,4.0,91,0.11,,,0.14,,2013-07-01 01:11:00,
2013-06-30 21:22:00,69.0,67.0,29.92,SW,217,0.0,3.0,92,0.11,,,0.15,,2013-07-01 01:22:00,
2013-06-30 21:33:00,69.0,67.0,29.92,NE,41,0.0,1.0,92,0.11,,,0.15,,2013-07-01 01:33:00,
2013-06-30 21:42:00,68.0,66.0,29.92,SW,231,0.0,3.0,92,0.07,,,0.16,,2013-07-01 01:42:00,
2013-06-30 21:52:00,68.0,66.0,29.92,SW,236,0.0,2.0,93,0.04,,,0.16,,2013-07-01 01:52:00,
2013-06-30 22:02:00,68.0,66.0,29.91,SW,236,0.0,0.0,93,0.02,,,0.16,,2013-07-01 02:02:00,
2013-06-30 22:12:00,68.0,66.0,29.91,SW,235,0.0,1.0,93,0.01,,,0.16,,2013-07-01 02:12:00,
2013-06-30 22:22:00,67.0,65.0,29.92,SW,234,0.0,0.0,93,0.01,,,0.16,,2013-07-01 02:22:00,
2013-06-30 22:33:00,67.0,65.0,29.93,SW,235,0.0,0.0,93,0.01,,,0.16,,2013-07-01 02:33:00,
2013-06-30 22:44:00,67.0,65.0,29.94,SW,235,0.0,0.0,93,0.00,,,0.16,,2013-07-01 02:44:00,
2013-06-30 22:53:00,67.0,65.0,29.94,SW,234,0.0,0.0,93,0.00,,,0.16,,2013-07-01 02:53:00,
2013-06-30 23:01:00,67.0,65.0,29.94,SW,235,0.0,0.0,93,0.00,,,0.16,,2013-07-01 03:01:00,
2013-06-30 23:11:00,67.0,65.0,29.94,SW,234,0.0,0.0,94,0.00,,,0.16,,2013-07-01 03:11:00,
2013-06-30 23:23:00,67.0,65.0,29.94,SW,234,0.0,0.0,94,0.00,,,0.16,,2013-07-01 03:23:00,
2013-06-30 23:33:00,67.0,65.0,29.95,SW,234,0.0,0.0,94,0.00,,,0.16,,2013-07-01 03:33:00,
2013-06-30 23:43:00,67.0,65.0,29.95,SW,235,0.0,0.0,94,0.00,,,0.16,,2013-07-01 03:43:00,
2013-06-30 23:52:00,67.0,65.0,29.96,SW,235,0.0,0.0,94,0.00,,,0.16,,2013-07-01 03:52:00,